SCP
0 0 0 0 0 0 0 0 0 0 0 0 0 0 0 0 0 0 0 -0 -0 -0 0 0 0 0 0 0 0 0 0 0 0 0 0 0 0 0 0 0 0 0 -0
0 0 0 0 0 0 0 0 0 0 0 0 0 0 0 0 0 0 0 0 -0 -0 -0 -0 -0 -0 0 0 0 0 0 0 0 0 0 0 0 0 0 0 0 0 0
0 0 0 0 0 0 0 0 0 0 0 0 0 0 0 0 0 0 0 0 0 -0 -0 -0 -0 -0 -1 -1 -0 -0 -0 0 0 0 0 0 0 0 0 0 0 0 0
0 0 0 0 0 0 0 0 0 0 0 0 0 0 0 0 0 0 0 0 0 0 0 0 0 0 0 0 0 0 0 0 0 0 0 0 0 0 0 0 0 0 0
0 0 0 0 0 0 0 0 0 0 0 0 0 0 0 0 0 0 0 0 0 0 0 0 0 0 0 0 0 0 0 0 0 0 0 0 0 0 0 0 0 0 0
0 0 0 0 0 0 0 0 0 0 0 0 0 0 0 0 0 0 0 0 0 0 0 0 0 0 0 0 0 0 0 0 0 0 0 0 0 0 0 0 0 0 0
0 0 0 0 0 0 0 0 0 0 0 0 0 0 0 0 0 0 0 0 0 0 0 0 0 0 0 0 0 0 0 0 0 0 0 0 0 0 0 0 0 0 0
0 0 0 0 0 0 0 0 0 0 0 0 0 0 0 0 0 0 0 0 0 0 0 0 0 0 0 0 0 0 0 0 0 0 0 0 0 0 0 0 0 0 0
0 0 0 0 0 0 0 0 0 0 0 0 0 0 0 0 0 0 0 0 0 0 0 0 0 0 0 0 0 0 0 0 0 0 0 0 0 0 0 0 0 0 0
0 0 0 0 0 0 0 0 0 0 0 0 0 0 0 0 0 0 0 0 0 0 0 0 0 0 0 0 0 0 0 0 0 0 0 0 0 0 0 0 0 0 0
0 0 0 0 0 0 0 0 0 0 0 0 0 0 0 0 0 0 0 0 0 0 0 0 0 0 0 0 0 0 0 0 0 0 0 0 0 0 0 0 0 0 0
0 0 0 0 0 0 0 0 0 0 0 0 0 0 0 0 0 0 0 0 0 0 0 0 0 0 0 0 0 0 0 0 0 0 0 0 0 0 0 0 0 0 0
0 0 0 0 0 0 0 0 0 0 0 0 0 0 0 0 0 0 0 0 0 0 0 0 0 0 0 0 0 0 0 0 0 0 0 0 0 0 0 0 0 0 0
0 0 0 0 0 0 0 0 0 0 0 0 0 0 0 0 0 0 0 0 0 0 0 0 0 0 0 0 0 0 0 0 0 0 0 0 0 0 0 0 0 0 0
0 0 0 0 0 0 0 0 0 0 0 0 0 0 0 0 0 0 0 0 0 0 0 0 0 0 0 0 0 0 0 0 0 0 0 0 0 0 0 0 0 0 0
0 0 0 0 0 0 0 0 0 0 0 0 0 0 0 0 0 0 0 0 0 0 0 0 0 0 0 0 0 0 0 0 0 0 0 0 0 0 0 0 0 0 0
0 0 0 0 0 0 0 0 0 0 0 0 0 0 0 0 0 0 0 0 0 0 0 0 0 0 0 0 0 0 0 0 0 0 0 0 0 0 0 0 0 0 0
0 0 0 0 0 0 0 0 0 0 0 0 0 0 0 0 0 0 0 0 0 0 0 0 0 0 0 0 0 0 0 0 0 0 0 0 0 0 0 0 0 0 0
0 0 0 0 0 0 0 0 0 0 0 0 0 0 0 0 0 0 0 0 0 0 0 0 0 0 0 0 0 0 0 0 0 0 0 0 0 0 0 0 0 0 0
0 0 0 0 0 0 0 0 0 0 0 0 0 0 0 0 0 0 0 0 0 0 0 0 0 0 0 0 0 0 0 0 0 0 0 0 0 0 0 0 0 0 0
0 0 0 0 0 0 0 0 0 0 0 0 0 0 0 0 0 0 0 0 0 0 0 0 0 0 0 0 0 0 0 0 0 0 0 0 0 0 0 0 0 -0 0
0 0 0 0 0 0 0 0 0 0 0 0 0 0 0 0 0 0 0 0 0 0 0 0 0 0 0 0 0 0 0 0 0 0 0 0 0 0 0 0 0 0 0
0 0 0 0 0 0 0 -0 -0 0 0 0 0 0 0 0 0 0 0 0 0 0 0 0 0 0 0 0 0 0 0 0 0 0 0 0 0 0 0 0 0 0 0
0 0 0 -0 -0 -0 -0 -0 -0 0 0 0 0 0 0 0 0 0 0 0 0 0 0 0 0 0 0 0 0 0 0 0 0 0 0 0 0 0 0 0 0 0 -0
0 0 0 0 -0 -0 -0 -0 -0 -0 -0 0 0 0 0 0 0 0 0 0 0 0 0 0 0 0 0 0 0 0 0 0 0 0 0 0 0 0 0 0 0 0 0
-0 -0 -0 -0 -0 -0 -0 -0 -0 -0 -0 -0 -0 0 0 0 0 0 0 0 0 0 0 0 0 0 0 0 0 0 0 0 0 0 0 0 0 0 0 0 0 0 0
Wind_Speed_500mb
47 42 39 35 32 30 25 21 20 17 12 7 6 9 9 6 8 11 16 17 16 10 9 11 12 15 15 20 20 20 18 16 15 13 10 8 7 6 5 4 2 6 8
48 46 40 35 32 31 30 25 21 16 11 10 13 10 8 7 8 10 12 15 17 15 14 17 12 10 10 16 23 25 25 24 22 19 17 15 12 10 11 11 8 8 10
53 48 42 39 37 37 34 32 26 20 18 19 18 12 10 11 13 16 18 20 20 21 19 16 8 7 17 9 12 19 23 28 24 21 20 22 20 17 15 14 15 16 15
57 51 44 41 39 39 37 32 31 27 24 22 19 17 16 17 18 20 20 23 24 23 19 20 19 20 9 9 14 13 15 22 27 28 28 27 26 24 23 20 19 19 20
58 54 46 41 40 40 40 37 35 33 29 25 25 21 19 18 21 24 27 26 25 23 22 18 16 13 16 18 15 13 17 14 20 27 34 34 33 28 30 28 27 28 27
63 58 55 48 46 44 43 42 40 38 34 30 31 26 24 27 26 26 26 25 23 21 18 15 15 14 17 20 22 23 26 24 26 26 24 23 24 22 25 25 28 30 26
64 60 57 54 52 51 49 47 45 42 39 37 33 29 26 29 31 29 25 22 20 18 16 15 14 9 9 13 16 17 19 20 26 28 31 28 32 35 31 34 38 37 39
71 65 62 60 57 54 53 50 46 45 44 41 30 27 20 22 30 29 25 23 21 19 18 17 15 11 10 8 8 14 17 24 26 26 25 27 26 28 28 31 30 34 37
78 75 72 68 62 58 54 51 49 48 49 47 43 32 18 20 31 33 31 26 23 21 19 16 13 12 11 7 4 2 4 7 9 11 13 15 17 19 20 21 23 25 28
88 85 81 76 69 62 57 52 50 50 50 49 53 57 39 26 26 24 33 32 28 24 24 20 16 12 9 6 4 5 6 7 8 9 9 12 14 17 18 20 21 22 23
92 89 86 81 73 63 55 52 51 50 53 56 57 65 52 33 35 26 36 34 33 25 28 25 19 14 9 4 5 7 9 11 12 11 12 11 12 14 16 18 20 22 23
99 90 81 76 68 58 53 51 53 55 55 52 58 63 62 45 44 37 33 41 34 38 31 28 23 15 8 1 7 13 16 17 17 16 14 14 15 16 17 19 20 22 24
98 93 86 76 66 58 54 52 49 46 40 42 45 48 58 51 40 40 36 44 37 37 30 30 24 18 12 6 10 16 21 20 19 19 19 20 20 23 25 28 29 31 31
88 78 64 69 67 58 47 44 41 39 38 40 39 38 42 53 53 48 42 49 39 28 28 23 27 19 11 10 12 14 17 17 19 21 21 22 24 27 30 33 36 38 41
38 62 52 39 42 53 45 41 39 35 37 34 31 33 35 37 40 47 42 42 30 37 33 32 16 18 12 10 13 14 14 16 19 22 30 31 33 34 37 39 43 45 45
15 12 35 27 34 32 46 45 43 41 31 29 30 30 30 30 32 37 40 45 31 23 24 25 25 20 12 10 14 16 19 22 24 26 27 31 35 40 43 44 45 49 50
27 19 27 34 30 33 32 37 36 38 30 32 35 31 32 29 33 35 40 41 32 21 26 31 26 18 13 14 16 21 23 26 28 31 34 37 40 41 41 45 48 49 52
33 30 29 33 33 31 30 27 34 33 35 35 34 34 36 35 34 34 33 31 27 22 23 30 25 20 17 18 20 24 27 30 32 36 35 37 38 39 43 45 47 51 53
29 29 30 27 26 30 35 33 34 38 35 32 32 34 38 35 38 37 35 32 29 26 24 20 18 15 12 16 21 26 33 36 38 41 41 41 41 43 47 52 53 54 56
28 28 28 30 32 35 35 36 36 40 39 35 32 32 33 29 28 31 30 28 25 22 18 13 8 9 14 17 25 30 27 29 38 45 45 44 47 53 58 58 58 58 60
29 35 38 32 31 34 36 40 37 37 38 36 34 30 29 26 23 19 17 15 14 12 10 8 10 13 14 15 19 24 32 35 37 38 33 34 41 45 49 53 58 60 68
30 30 36 40 37 34 36 32 33 33 33 32 30 26 21 18 18 15 12 10 7 4 3 8 11 16 20 22 23 25 33 38 39 31 42 50 47 53 52 52 56 73 79
32 31 25 24 29 30 30 31 27 25 27 28 27 25 21 18 14 12 11 9 10 13 16 22 24 23 25 23 32 35 35 40 41 41 47 60 44 55 54 59 63 76 90
34 41 33 36 24 25 28 27 34 28 27 26 25 23 21 17 13 10 14 17 19 23 26 29 30 32 35 35 35 40 44 46 43 37 40 60 54 58 61 63 72 83 68
22 23 24 28 34 35 34 33 32 31 26 22 23 22 19 18 18 21 22 24 25 28 33 35 32 34 38 35 34 36 32 39 51 43 40 51 62 69 73 74 66 68 73
29 36 39 38 37 33 30 27 23 22 22 20 19 18 20 20 23 26 27 28 29 23 28 32 33 36 35 34 27 31 35 40 48 58 42 53 65 65 93 83 70 77 82
Wind_Direction_500mb
193 193 193 196 201 204 202 200 193 198 206 222 286 304 300 276 217 213 204 210 212 224 240 261 262 260 266 254 245 242 241 242 240 239 237 246 248 264 290 300 274 247 255
200 198 203 208 211 215 214 209 213 221 236 264 295 298 287 261 229 213 209 222 216 238 248 260 257 257 268 249 236 234 230 231 236 242 238 245 252 255 258 261 263 264 260
207 210 214 217 221 223 221 217 216 233 257 276 281 262 244 229 218 213 221 209 217 224 238 206 207 272 310 237 213 226 232 230 232 245 247 250 250 254 257 267 266 265 262
214 216 223 224 228 225 221 213 221 238 253 267 256 244 231 223 218 213 205 206 211 218 219 243 271 281 273 230 231 229 231 232 237 245 248 250 255 258 260 258 266 273 268
220 221 223 226 226 222 224 225 232 245 255 250 244 233 218 206 195 199 192 201 201 212 235 243 256 245 222 226 236 248 256 242 254 252 253 248 249 252 248 264 271 270 265
225 228 229 228 228 228 227 232 236 242 246 234 230 224 210 199 197 197 197 202 210 220 231 231 231 227 222 228 238 231 230 233 236 244 241 241 242 238 257 259 265 266 270
226 227 228 226 227 229 232 237 239 238 230 224 218 202 194 194 187 188 191 200 205 209 211 202 191 161 197 231 234 234 234 241 247 252 255 255 264 258 253 262 263 270 267
225 228 228 228 229 230 233 234 235 230 223 218 204 180 173 184 186 189 190 194 194 194 195 195 186 180 159 159 194 233 243 247 252 255 259 259 257 255 259 256 259 259 261
224 227 229 231 232 235 238 238 229 224 224 216 215 202 175 198 176 189 191 184 190 186 187 185 179 178 177 158 132 186 250 276 269 265 267 266 264 260 258 257 257 258 261
225 226 230 230 231 236 237 233 225 219 217 224 223 218 211 192 185 176 187 184 182 175 177 174 179 172 160 133 89 33 3 343 321 312 297 289 283 279 275 268 268 267 267
224 225 225 226 230 232 230 228 228 227 234 228 220 214 212 208 199 176 179 176 180 179 183 182 182 185 177 131 29 7 358 346 333 319 307 295 289 284 281 285 285 285 286
222 219 217 219 221 223 225 227 231 230 229 222 215 215 216 209 200 192 174 179 182 181 186 186 185 190 197 292 335 338 336 331 325 321 314 304 295 289 288 288 287 287 288
215 212 213 212 213 212 217 220 220 217 211 214 217 217 221 223 223 208 184 173 173 180 184 194 197 199 207 239 303 322 320 318 314 311 311 310 308 303 303 300 298 294 293
202 199 202 206 202 206 203 203 195 192 191 204 210 214 214 220 224 216 198 180 165 171 174 181 198 204 224 268 298 312 311 305 306 304 300 298 295 294 295 295 295 295 295
202 183 175 175 181 181 184 184 178 176 177 185 190 199 204 207 207 209 206 190 186 171 180 191 186 213 238 273 300 307 312 316 314 310 305 305 303 300 296 294 293 293 291
219 174 148 158 155 171 165 167 162 158 163 167 179 184 185 182 184 188 189 190 178 168 163 181 189 208 228 269 288 295 303 307 309 305 299 297 295 295 294 292 290 289 288
180 174 153 151 139 163 143 161 141 146 153 169 164 167 161 156 165 172 177 186 192 185 160 180 190 206 231 258 277 287 294 298 304 303 304 301 297 294 290 290 289 288 289
144 143 144 154 162 148 157 147 146 141 163 163 156 157 147 145 147 154 172 184 194 198 182 173 185 205 231 256 276 290 297 304 306 306 304 302 300 301 299 293 294 293 291
138 136 133 138 146 153 161 149 153 151 149 152 151 148 138 139 141 144 149 153 155 156 164 160 179 201 236 275 292 300 301 306 311 309 310 309 305 301 299 299 297 294 293
134 137 146 156 156 153 154 155 155 148 149 154 151 149 139 142 147 151 152 154 156 160 167 165 199 239 272 276 292 296 295 301 308 312 310 306 301 303 303 301 301 297 296
145 158 160 163 160 156 156 151 149 145 149 154 158 151 148 156 160 159 158 152 152 153 160 187 235 255 267 280 292 289 295 305 308 306 310 310 305 301 302 301 303 304 303
152 158 161 162 162 163 157 155 155 159 160 162 156 150 152 156 158 158 153 151 170 177 251 266 275 282 290 295 299 294 301 304 306 309 308 307 310 305 301 295 290 299 305
153 149 156 161 172 171 166 162 166 163 168 171 165 162 158 161 157 163 179 203 234 264 285 287 294 287 288 290 294 297 297 298 298 300 301 300 307 303 302 298 295 297 306
169 169 173 164 168 183 186 191 191 199 196 189 185 179 176 177 186 216 243 253 266 277 280 283 286 294 295 290 289 294 299 301 303 311 308 299 306 302 303 299 300 303 302
163 175 194 199 194 208 208 206 203 204 201 201 200 203 202 211 227 243 259 267 264 269 276 279 279 285 289 285 291 290 290 296 300 304 306 302 304 306 302 300 304 298 296
184 196 200 197 203 205 202 198 192 196 202 204 214 223 235 245 251 257 260 266 268 268 270 277 283 288 288 290 278 284 289 294 300 304 310 303 305 307 302 302 302 299 298
Wind_Speed_850mb
47 42 39 35 32 30 25 21 20 17 12 7 6 9 9 6 8 11 16 17 16 10 9 11 12 15 15 20 20 20 18 16 15 13 10 8 7 6 5 4 2 6 8
48 46 40 35 32 31 30 25 21 16 11 10 13 10 8 7 8 10 12 15 17 15 14 17 12 10 10 16 23 25 25 24 22 19 17 15 12 10 11 11 8 8 10
53 48 42 39 37 37 34 32 26 20 18 19 18 12 10 11 13 16 18 20 20 21 19 16 8 7 17 9 12 19 23 28 24 21 20 22 20 17 15 14 15 16 15
57 51 44 41 39 39 37 32 31 27 24 22 19 17 16 17 18 20 20 23 24 23 19 20 19 20 9 9 14 13 15 22 27 28 28 27 26 24 23 20 19 19 20
58 54 46 41 40 40 40 37 35 33 29 25 25 21 19 18 21 24 27 26 25 23 22 18 16 13 16 18 15 13 17 14 20 27 34 34 33 28 30 28 27 28 27
63 58 55 48 46 44 43 42 40 38 34 30 31 26 24 27 26 26 26 25 23 21 18 15 15 14 17 20 22 23 26 24 26 26 24 23 24 22 25 25 28 30 26
64 60 57 54 52 51 49 47 45 42 39 37 33 29 26 29 31 29 25 22 20 18 16 15 14 9 9 13 16 17 19 20 26 28 31 28 32 35 31 34 38 37 39
71 65 62 60 57 54 53 50 46 45 44 41 30 27 20 22 30 29 25 23 21 19 18 17 15 11 10 8 8 14 17 24 26 26 25 27 26 28 28 31 30 34 37
78 75 72 68 62 58 54 51 49 48 49 47 43 32 18 20 31 33 31 26 23 21 19 16 13 12 11 7 4 2 4 7 9 11 13 15 17 19 20 21 23 25 28
88 85 81 76 69 62 57 52 50 50 50 49 53 57 39 26 26 24 33 32 28 24 24 20 16 12 9 6 4 5 6 7 8 9 9 12 14 17 18 20 21 22 23
92 89 86 81 73 63 55 52 51 50 53 56 57 65 52 33 35 26 36 34 33 25 28 25 19 14 9 4 5 7 9 11 12 11 12 11 12 14 16 18 20 22 23
99 90 81 76 68 58 53 51 53 55 55 52 58 63 62 45 44 37 33 41 34 38 31 28 23 15 8 1 7 13 16 17 17 16 14 14 15 16 17 19 20 22 24
98 93 86 76 66 58 54 52 49 46 40 42 45 48 58 51 40 40 36 44 37 37 30 30 24 18 12 6 10 16 21 20 19 19 19 20 20 23 25 28 29 31 31
88 78 64 69 67 58 47 44 41 39 38 40 39 38 42 53 53 48 42 49 39 28 28 23 27 19 11 10 12 14 17 17 19 21 21 22 24 27 30 33 36 38 41
38 62 52 39 42 53 45 41 39 35 37 34 31 33 35 37 40 47 42 42 30 37 33 32 16 18 12 10 13 14 14 16 19 22 30 31 33 34 37 39 43 45 45
15 12 35 27 34 32 46 45 43 41 31 29 30 30 30 30 32 37 40 45 31 23 24 25 25 20 12 10 14 16 19 22 24 26 27 31 35 40 43 44 45 49 50
27 19 27 34 30 33 32 37 36 38 30 32 35 31 32 29 33 35 40 41 32 21 26 31 26 18 13 14 16 21 23 26 28 31 34 37 40 41 41 45 48 49 52
33 30 29 33 33 31 30 27 34 33 35 35 34 34 36 35 34 34 33 31 27 22 23 30 25 20 17 18 20 24 27 30 32 36 35 37 38 39 43 45 47 51 53
29 29 30 27 26 30 35 33 34 38 35 32 32 34 38 35 38 37 35 32 29 26 24 20 18 15 12 16 21 26 33 36 38 41 41 41 41 43 47 52 53 54 56
28 28 28 30 32 35 35 36 36 40 39 35 32 32 33 29 28 31 30 28 25 22 18 13 8 9 14 17 25 30 27 29 38 45 45 44 47 53 58 58 58 58 60
29 35 38 32 31 34 36 40 37 37 38 36 34 30 29 26 23 19 17 15 14 12 10 8 10 13 14 15 19 24 32 35 37 38 33 34 41 45 49 53 58 60 68
30 30 36 40 37 34 36 32 33 33 33 32 30 26 21 18 18 15 12 10 7 4 3 8 11 16 20 22 23 25 33 38 39 31 42 50 47 53 52 52 56 73 79
32 31 25 24 29 30 30 31 27 25 27 28 27 25 21 18 14 12 11 9 10 13 16 22 24 23 25 23 32 35 35 40 41 41 47 60 44 55 54 59 63 76 90
34 41 33 36 24 25 28 27 34 28 27 26 25 23 21 17 13 10 14 17 19 23 26 29 30 32 35 35 35 40 44 46 43 37 40 60 54 58 61 63 72 83 68
22 23 24 28 34 35 34 33 32 31 26 22 23 22 19 18 18 21 22 24 25 28 33 35 32 34 38 35 34 36 32 39 51 43 40 51 62 69 73 74 66 68 73
29 36 39 38 37 33 30 27 23 22 22 20 19 18 20 20 23 26 27 28 29 23 28 32 33 36 35 34 27 31 35 40 48 58 42 53 65 65 93 83 70 77 82
Wind_Direction_850mb
193 193 193 196 201 204 202 200 193 198 206 222 286 304 300 276 217 213 204 210 212 224 240 261 262 260 266 254 245 242 241 242 240 239 237 246 248 264 290 300 274 247 255
200 198 203 208 211 215 214 209 213 221 236 264 295 298 287 261 229 213 209 222 216 238 248 260 257 257 268 249 236 234 230 231 236 242 238 245 252 255 258 261 263 264 260
207 210 214 217 221 223 221 217 216 233 257 276 281 262 244 229 218 213 221 209 217 224 238 206 207 272 310 237 213 226 232 230 232 245 247 250 250 254 257 267 266 265 262
214 216 223 224 228 225 221 213 221 238 253 267 256 244 231 223 218 213 205 206 211 218 219 243 271 281 273 230 231 229 231 232 237 245 248 250 255 258 260 258 266 273 268
220 221 223 226 226 222 224 225 232 245 255 250 244 233 218 206 195 199 192 201 201 212 235 243 256 245 222 226 236 248 256 242 254 252 253 248 249 252 248 264 271 270 265
225 228 229 228 228 228 227 232 236 242 246 234 230 224 210 199 197 197 197 202 210 220 231 231 231 227 222 228 238 231 230 233 236 244 241 241 242 238 257 259 265 266 270
226 227 228 226 227 229 232 237 239 238 230 224 218 202 194 194 187 188 191 200 205 209 211 202 191 161 197 231 234 234 234 241 247 252 255 255 264 258 253 262 263 270 267
225 228 228 228 229 230 233 234 235 230 223 218 204 180 173 184 186 189 190 194 194 194 195 195 186 180 159 159 194 233 243 247 252 255 259 259 257 255 259 256 259 259 261
224 227 229 231 232 235 238 238 229 224 224 216 215 202 175 198 176 189 191 184 190 186 187 185 179 178 177 158 132 186 250 276 269 265 267 266 264 260 258 257 257 258 261
225 226 230 230 231 236 237 233 225 219 217 224 223 218 211 192 185 176 187 184 182 175 177 174 179 172 160 133 89 33 3 343 321 312 297 289 283 279 275 268 268 267 267
224 225 225 226 230 232 230 228 228 227 234 228 220 214 212 208 199 176 179 176 180 179 183 182 182 185 177 131 29 7 358 346 333 319 307 295 289 284 281 285 285 285 286
222 219 217 219 221 223 225 227 231 230 229 222 215 215 216 209 200 192 174 179 182 181 186 186 185 190 197 292 335 338 336 331 325 321 314 304 295 289 288 288 287 287 288
215 212 213 212 213 212 217 220 220 217 211 214 217 217 221 223 223 208 184 173 173 180 184 194 197 199 207 239 303 322 320 318 314 311 311 310 308 303 303 300 298 294 293
202 199 202 206 202 206 203 203 195 192 191 204 210 214 214 220 224 216 198 180 165 171 174 181 198 204 224 268 298 312 311 305 306 304 300 298 295 294 295 295 295 295 295
202 183 175 175 181 181 184 184 178 176 177 185 190 199 204 207 207 209 206 190 186 171 180 191 186 213 238 273 300 307 312 316 314 310 305 305 303 300 296 294 293 293 291
219 174 148 158 155 171 165 167 162 158 163 167 179 184 185 182 184 188 189 190 178 168 163 181 189 208 228 269 288 295 303 307 309 305 299 297 295 295 294 292 290 289 288
180 174 153 151 139 163 143 161 141 146 153 169 164 167 161 156 165 172 177 186 192 185 160 180 190 206 231 258 277 287 294 298 304 303 304 301 297 294 290 290 289 288 289
144 143 144 154 162 148 157 147 146 141 163 163 156 157 147 145 147 154 172 184 194 198 182 173 185 205 231 256 276 290 297 304 306 306 304 302 300 301 299 293 294 293 291
138 136 133 138 146 153 161 149 153 151 149 152 151 148 138 139 141 144 149 153 155 156 164 160 179 201 236 275 292 300 301 306 311 309 310 309 305 301 299 299 297 294 293
134 137 146 156 156 153 154 155 155 148 149 154 151 149 139 142 147 151 152 154 156 160 167 165 199 239 272 276 292 296 295 301 308 312 310 306 301 303 303 301 301 297 296
145 158 160 163 160 156 156 151 149 145 149 154 158 151 148 156 160 159 158 152 152 153 160 187 235 255 267 280 292 289 295 305 308 306 310 310 305 301 302 301 303 304 303
152 158 161 162 162 163 157 155 155 159 160 162 156 150 152 156 158 158 153 151 170 177 251 266 275 282 290 295 299 294 301 304 306 309 308 307 310 305 301 295 290 299 305
153 149 156 161 172 171 166 162 166 163 168 171 165 162 158 161 157 163 179 203 234 264 285 287 294 287 288 290 294 297 297 298 298 300 301 300 307 303 302 298 295 297 306
169 169 173 164 168 183 186 191 191 199 196 189 185 179 176 177 186 216 243 253 266 277 280 283 286 294 295 290 289 294 299 301 303 311 308 299 306 302 303 299 300 303 302
163 175 194 199 194 208 208 206 203 204 201 201 200 203 202 211 227 243 259 267 264 269 276 279 279 285 289 285 291 290 290 296 300 304 306 302 304 306 302 300 304 298 296
184 196 200 197 203 205 202 198 192 196 202 204 214 223 235 245 251 257 260 266 268 268 270 277 283 288 288 290 278 284 289 294 300 304 310 303 305 307 302 302 302 299 298